Location: Newark
(40.7360°N, 74.1730°W)
Time: 01:54:28
(UTC-04:00)

Amateur Radio Satellites - All Passes

Search period start: 28 May 2016 01:24
Search period end: 29 May 2016 01:24
Location: Newark, 40.7360°N, 74.1730°W

Satellite Date Start Highest point End Downlink Frequencies (MHz)
Time Altitude Azimuth
SPROUT 28 May 01:28:46 01:31:51 19° 266° (W) 01:34:58 437.525
BUGSAT 1 28 May 01:29:52 01:33:45 48° 287° (WNW) 01:37:36 437.445
ISS 28 May 01:29:54 01:31:28 13° 6° (N) 01:33:03 145.825
JAS-2 28 May 01:31:03 01:38:21 55° 98° (E) 01:44:51 435.910
BEESAT 28 May 01:33:00 01:36:55 26° 67° (ENE) 01:40:51 436.000
SO-50 28 May 01:47:07 01:51:30 32° 312° (NW) 01:55:53 436.795
TISAT 1 28 May 01:50:54 01:54:48 36° 262° (W) 01:58:43 437.305
POPSAT HIP 1 28 May 01:52:40 01:54:45 14° 296° (WNW) 01:56:50 437.405
QB50P1 28 May 01:53:07 01:55:07 13° 297° (WNW) 01:57:06 145.935-145.965
QB50P2 28 May 01:55:53 01:57:28 12° 297° (WNW) 01:59:02 145.880/145.840
POLYITAN 1 28 May 01:58:27 01:59:55 12° 297° (WNW) 02:01:22 437.675
Oscar 19 28 May 02:09:38 02:14:41 53° 100° (E) 02:19:41 437.125/150
YUBILEINY 28 May 02:25:51 02:33:11 29° 68° (ENE) 02:40:29 435.215
KKS-1 28 May 02:26:52 02:28:13 11° 61° (ENE) 02:29:34 437.445
Gurwin Techsat 1B 28 May 02:34:39 02:39:36 38° 98° (E) 02:44:31 435.225
SWISSCUBE 28 May 02:40:04 02:44:45 59° 259° (W) 02:49:28 437.505
MOZHAYETS 4 28 May 02:43:45 02:45:39 12° 62° (ENE) 02:47:33
RS-15 28 May 02:44:35 02:57:00 86° 58° (ENE) 03:09:19 29.354- 29.394
ITUPSAT 1 28 May 02:46:23 02:51:04 58° 259° (W) 02:55:47 437.325
PHONESAT 2.4 28 May 02:48:30 02:51:23 33° 202° (SSW) 02:54:14 2401.200-2431.200
ITAMSAT 1 28 May 02:52:34 02:56:31 21° 94° (E) 03:00:28 435.822/435.867
STARS 28 May 03:00:56 03:03:00 13° 62° (ENE) 03:05:06 437.465
ISS 28 May 03:05:50 03:08:44 28° 26° (NNE) 03:11:37 145.825
BEESAT 28 May 03:10:19 03:14:34 32° 263° (W) 03:18:51 436.000
Cosmos 2504 28 May 03:16:25 03:21:35 17° 62° (ENE) 03:26:52 435.465 / 435.565
JAS-2 28 May 03:16:38 03:22:52 30° 299° (WNW) 03:28:36 435.910
Cosmos 2491 28 May 03:21:02 03:28:27 32° 84° (E) 03:35:51 435.465 / 435.565
Oscar 19 28 May 03:49:58 03:53:35 20° 297° (WNW) 03:57:11 437.125/150
KKS-1 28 May 03:59:41 04:04:09 76° 258° (WSW) 04:08:38 437.445
CUBESAT XI-V 28 May 04:10:09 04:11:54 12° 61° (ENE) 04:13:39 437.345
Gurwin Techsat 1B 28 May 04:14:56 04:19:22 27° 294° (WNW) 04:23:46 435.225
MOZHAYETS 4 28 May 04:17:41 04:22:13 69° 258° (WSW) 04:26:47
YUBILEINY 28 May 04:21:57 04:30:32 63° 269° (W) 04:39:09 435.215
ITAMSAT 1 28 May 04:31:12 04:36:11 46° 290° (WNW) 04:41:09 435.822/435.867
STARS 28 May 04:34:29 04:38:51 61° 259° (WSW) 04:43:14 437.465
AO-7 28 May 04:36:28 04:44:47 62° 104° (ESE) 04:53:02 29.400- 29.500
ISS 28 May 04:42:10 04:45:13 37° 223° (SW) 04:48:15 145.825
RS-15 28 May 04:58:43 05:08:01 26° 259° (W) 05:17:17 29.354- 29.394
Cosmos 2504 28 May 05:07:43 05:16:13 82° 82° (E) 05:25:05 435.465 / 435.565
Cosmos 2491 28 May 05:16:09 05:24:46 56° 283° (WNW) 05:33:27 435.465 / 435.565
HORYU 2 28 May 05:17:47 05:21:54 36° 98° (E) 05:26:00 437.375
AO-85 28 May 05:32:17 05:37:07 33° 113° (ESE) 05:41:56 145.980
CUBESAT XI-V 28 May 05:43:57 05:48:37 77° 258° (WSW) 05:53:20 437.345
BRITE-PL 28 May 05:47:40 05:48:27 10° 85° (E) 05:49:14 437.365/2234.400
CUTE-I 28 May 06:10:16 06:13:44 17° 92° (E) 06:17:13 437.470
LilacSat-2 28 May 06:13:25 06:15:05 12° 91° (E) 06:16:45 437.200
AO-7 28 May 06:29:58 06:37:01 32° 303° (WNW) 06:44:04 29.400- 29.500
HORYU 2 28 May 06:54:54 06:58:12 21° 294° (WNW) 07:01:31 437.375
NOAA 15 28 May 06:56:11 07:01:29 68° 102° (ESE) 07:06:44 137.62
Cubesat XI-IV 28 May 07:02:44 07:07:59 53° 100° (E) 07:13:13 437.490
Cosmos 2504 28 May 07:02:51 07:08:39 21° 280° (W) 07:14:36 435.465 / 435.565
NOAA 18 28 May 07:05:00 07:10:27 66° 103° (ESE) 07:15:55 137.9125
PRISM 28 May 07:12:19 07:13:34 11° 62° (ENE) 07:14:49 437.425
AO-85 28 May 07:12:30 07:17:35 39° 310° (NW) 07:22:34 145.980
STRAND 1 28 May 07:13:43 07:18:47 74° 74° (ENE) 07:23:54 437.568
BRITE-PL 28 May 07:22:34 07:27:42 80° 285° (WNW) 07:32:24 437.365/2234.400
Cosmos 2491 28 May 07:23:05 07:23:55 10° 306° (NW) 07:24:46 435.465 / 435.565
HO-68 28 May 07:27:05 07:29:26 12° 87° (E) 07:31:47 435.675
GOMX 1 28 May 07:44:41 07:49:22 81° 101° (E) 07:53:44 467.674
LilacSat-2 28 May 07:46:01 07:49:36 42° 287° (WNW) 07:53:10 437.200
CUTE-I 28 May 07:48:53 07:54:09 59° 288° (WNW) 07:59:25 437.470
Cosmos 2499 28 May 07:50:18 07:54:18 14° 59° (ENE) 07:58:21 435.465 / 435.565
AIST 1 28 May 08:02:40 08:06:39 33° 76° (ENE) 08:10:34
GONETS M04 28 May 08:16:01 08:23:42 33° 70° (ENE) 08:31:18
DOVE 4 28 May 08:30:50 08:35:12 69° 285° (WNW) 08:39:21 437.250
NOAA 15 28 May 08:37:27 08:40:40 17° 299° (WNW) 08:43:54 137.62
SO-50 28 May 08:38:16 08:42:27 30° 48° (NE) 08:46:30 436.795
Cubesat XI-IV 28 May 08:43:46 08:47:39 21° 297° (WNW) 08:51:32 437.490
PRISM 28 May 08:44:11 08:48:18 67° 258° (WSW) 08:52:29 437.425
CANX-2 28 May 08:45:22 08:49:34 52° 100° (E) 08:53:45 2200.000
NOAA 18 28 May 08:47:01 08:50:34 18° 299° (WNW) 08:54:07 137.9125
SEEDS 28 May 08:47:06 08:50:59 34° 97° (E) 08:54:52 437.485
O/OREOS (USA 219) 28 May 08:54:42 08:58:21 24° 102° (ESE) 09:01:59 437.305
STRAND 1 28 May 08:56:22 08:58:29 12° 270° (W) 09:00:37 437.568
CINEMA 3 28 May 08:57:04 09:01:13 64° 101° (ESE) 09:05:20 145.822/145.860
AUBIESAT-1 28 May 09:03:04 09:06:19 55° 107° (ESE) 09:09:35 437.475
M-CUBED/EXP-1 PRIME 28 May 09:10:17 09:13:35 88° 277° (W) 09:16:51 437.505
HO-68 28 May 09:11:02 09:18:14 76° 105° (ESE) 09:25:25 435.675
CUTE 1.7 + AOD 2 28 May 09:12:27 09:16:45 87° 285° (WNW) 09:21:03 437.475
PCSat 28 May 09:18:48 09:23:43 37° 111° (ESE) 09:28:42 145.827
Oscar 11 28 May 09:19:43 09:22:44 18° 93° (E) 09:25:44 145.826/435.025
GOMX 1 28 May 09:25:40 09:26:39 11° 301° (WNW) 09:27:38 467.674
COMPASS 1 28 May 09:31:51 09:36:05 80° 101° (ESE) 09:40:19 437.405
AAUSAT CUBESAT 2 28 May 09:33:47 09:37:59 67° 101° (ESE) 09:42:09 437.432
ZACube-1 28 May 09:34:44 09:38:06 23° 95° (E) 09:41:29 437.345
Cosmos 2499 28 May 09:40:29 09:49:05 68° 80° (E) 09:57:55 435.465 / 435.565
AIST 1 28 May 09:40:54 09:43:58 19° 273° (W) 09:47:01
CUBEBUG 2 28 May 09:42:22 09:46:31 63° 101° (E) 09:50:42 437.445
UNISAT 6 28 May 09:55:25 09:59:22 35° 71° (ENE) 10:03:17 437.425
DELFI C3 28 May 09:59:14 10:02:26 22° 95° (E) 10:05:36 145.870
TIGRISAT 28 May 10:02:38 10:06:41 39° 71° (ENE) 10:10:41 435.000
UWE-3 28 May 10:09:34 10:13:46 89° 104° (ESE) 10:18:01 435.000/436.395/437.385
FUNcube-1 28 May 10:11:52 10:16:01 58° 100° (E) 10:20:12 145.935
GONETS M04 28 May 10:12:29 10:20:50 53° 270° (W) 10:29:09
SO-50 28 May 10:18:46 10:22:55 33° 246° (WSW) 10:26:57 436.795
CANX-2 28 May 10:22:41 10:24:58 14° 296° (WNW) 10:27:16 2200.000
SEEDS 28 May 10:23:19 10:26:28 20° 293° (WNW) 10:29:37 437.485
CUSAT 1 28 May 10:24:46 10:28:05 14° 76° (ENE) 10:31:38 437.405
DUCHIFAT 1 28 May 10:30:26 10:32:38 14° 64° (ENE) 10:34:51 145.980
O/OREOS (USA 219) 28 May 10:33:27 10:37:34 33° 299° (WNW) 10:41:41 437.305
ANTELSAT 28 May 10:36:09 10:40:31 82° 259° (W) 10:44:50 437.575/2403.000
CINEMA 3 28 May 10:36:45 10:37:48 11° 298° (WNW) 10:38:51 145.822/145.860
Oscar 11 28 May 10:54:57 10:59:00 38° 288° (WNW) 11:03:01 145.826/435.025
HO-68 28 May 11:00:01 11:05:13 22° 303° (WNW) 11:10:25 435.675
PCSat 28 May 11:02:17 11:07:08 33° 309° (NW) 11:12:02 145.827
ESTCUBE 1 28 May 11:06:36 11:07:38 11° 89° (E) 11:08:40 437.505/2401.250
POPSAT HIP 1 28 May 11:07:24 11:11:20 38° 71° (ENE) 11:15:16 437.405
QB50P1 28 May 11:07:42 11:11:39 39° 71° (ENE) 11:15:36 145.935-145.965
QB50P2 28 May 11:10:11 11:14:12 44° 73° (ENE) 11:18:14 145.880/145.840
ZACube-1 28 May 11:10:46 11:14:22 28° 290° (WNW) 11:18:02 437.345
AAUSAT CUBESAT 2 28 May 11:11:39 11:12:54 11° 297° (WNW) 11:14:09 437.432
HUMSAT D 28 May 11:12:21 11:16:31 71° 102° (ESE) 11:20:43 437.325/437.525
POLYITAN 1 28 May 11:12:38 11:16:40 45° 72° (ENE) 11:20:42 437.675
BEESAT 2 28 May 11:17:40 11:20:56 25° 113° (ESE) 11:24:12 435.950
CUBEBUG 2 28 May 11:21:18 11:22:37 11° 297° (WNW) 11:23:57 437.445
NANOSAT C BR1 28 May 11:25:29 11:29:38 60° 74° (ENE) 11:33:48 145.865
VELOX 1 28 May 11:25:32 11:26:42 11° 90° (E) 11:27:52 145.980
UNISAT 6 28 May 11:32:58 11:36:10 20° 266° (W) 11:39:21 437.425
DELFI C3 28 May 11:33:49 11:37:16 27° 290° (WNW) 11:40:41 145.870
Cosmos 2499 28 May 11:34:43 11:41:30 27° 278° (W) 11:48:27 435.465 / 435.565
TIGRISAT 28 May 11:40:35 11:43:31 18° 267° (W) 11:46:26 435.000
JAS-2 28 May 11:42:07 11:48:12 28° 60° (ENE) 11:54:33 435.910
FUNcube-1 28 May 11:49:59 11:51:48 13° 296° (WNW) 11:53:37 145.935
BEESAT 3 28 May 11:50:13 11:54:08 78° 303° (WNW) 11:58:06 437.485
AISAT 28 May 11:59:28 12:03:17 28° 96° (E) 12:07:04 437.250
50 SAT 28 May 12:00:54 12:04:13 30° 97° (E) 12:07:31 437.505
CUSAT 1 28 May 12:02:20 12:08:39 83° 97° (E) 12:16:26 437.405
UKube-1 28 May 12:03:47 12:06:57 20° 94° (E) 12:10:07 .
DUCHIFAT 1 28 May 12:03:48 12:07:54 52° 260° (W) 12:12:01 145.980
DANDE 28 May 12:04:16 12:09:23 40° 88° (E) 12:15:55 436.750
BUGSAT 1 28 May 12:18:37 12:22:50 76° 259° (W) 12:27:00 437.445
ESTCUBE 1 28 May 12:40:22 12:44:55 71° 285° (WNW) 12:49:25 437.505/2401.250
POPSAT HIP 1 28 May 12:44:23 12:47:15 18° 267° (W) 12:50:07 437.405
QB50P1 28 May 12:44:46 12:47:35 17° 267° (W) 12:50:23 145.935-145.965
QB50P2 28 May 12:47:43 12:50:12 15° 268° (W) 12:52:44 145.880/145.840
CUBEBUG 1 28 May 12:50:09 12:54:32 79° 285° (WNW) 12:58:52 437.445
POLYITAN 1 28 May 12:50:16 12:52:41 15° 268° (W) 12:55:07 437.675
HUMSAT D 28 May 12:50:53 12:51:34 10° 297° (WNW) 12:52:16 437.325/437.525
DX 1 28 May 12:51:04 12:55:28 84° 106° (ESE) 12:59:47 434.975-435.025
BEESAT 2 28 May 12:55:10 12:58:40 29° 310° (NW) 13:02:11 435.950
VELOX 1 28 May 12:59:12 13:03:36 66° 286° (WNW) 13:07:58 145.980
NANOSAT C BR1 28 May 13:04:28 13:05:44 11° 270° (W) 13:07:00 145.865
SPROUT 28 May 13:13:30 13:17:46 73° 103° (ESE) 13:21:59 437.525
JAS-2 28 May 13:25:15 13:32:31 66° 259° (W) 13:40:22 435.910
Oscar 19 28 May 13:25:59 13:31:10 75° 74° (ENE) 13:36:23 437.125/150
BEESAT 3 28 May 13:32:08 13:32:31 10° 321° (NW) 13:32:54 437.485
Cosmos 2491 28 May 13:32:23 13:36:54 15° 59° (ENE) 13:41:22 435.465 / 435.565
AIST 2 28 May 13:32:59 13:36:54 44° 117° (ESE) 13:40:51 435.215
TISAT 1 28 May 13:34:56 13:38:42 32° 97° (E) 13:42:27 437.305
50 SAT 28 May 13:35:11 13:37:44 18° 293° (WNW) 13:40:17 437.505
AISAT 28 May 13:36:00 13:39:40 26° 292° (WNW) 13:43:18 437.250
UKube-1 28 May 13:39:09 13:43:06 35° 290° (WNW) 13:47:01 .
AO-7 28 May 13:46:21 13:51:37 19° 50° (NE) 13:56:55 29.400- 29.500
CUSAT 1 28 May 13:47:06 13:51:55 20° 300° (WNW) 13:57:18 437.405
DANDE 28 May 13:47:16 13:52:21 32° 293° (WNW) 13:58:44 436.750
Gurwin Techsat 1B 28 May 13:55:20 14:00:32 59° 72° (ENE) 14:05:46 435.225
AO-85 28 May 14:04:51 14:08:47 25° 45° (NE) 14:12:25 145.980
ITAMSAT 1 28 May 14:10:07 14:14:39 32° 67° (ENE) 14:19:14 435.822/435.867
SWISSCUBE 28 May 14:40:35 14:44:58 35° 97° (E) 14:49:21 437.505
ITUPSAT 1 28 May 14:47:11 14:51:37 36° 98° (E) 14:56:02 437.325
SPROUT 28 May 14:52:16 14:53:05 10° 298° (WNW) 14:53:56 437.525
Oscar 19 28 May 15:08:48 15:11:02 13° 271° (W) 15:13:16 437.125/150
BEESAT 28 May 15:09:57 15:14:43 64° 102° (ESE) 15:19:27 436.000
TISAT 1 28 May 15:11:03 15:14:09 21° 293° (WNW) 15:17:15 437.305
AIST 2 28 May 15:12:31 15:15:35 20° 315° (NW) 15:18:41 435.215
JAS-2 28 May 15:17:11 15:18:58 11° 278° (W) 15:20:46 435.910
Cosmos 2491 28 May 15:26:39 15:35:26 74° 81° (E) 15:44:08 435.465 / 435.565
YUBILEINY 28 May 15:27:00 15:34:23 32° 84° (E) 15:41:45 435.215
AO-7 28 May 15:34:51 15:43:07 80° 70° (ENE) 15:51:28 29.400- 29.500
Gurwin Techsat 1B 28 May 15:37:30 15:40:52 17° 269° (W) 15:44:15 435.225
AO-85 28 May 15:45:08 15:49:23 38° 246° (WSW) 15:53:17 145.980
ITAMSAT 1 28 May 15:49:34 15:54:05 30° 264° (W) 15:58:38 435.822/435.867
KKS-1 28 May 15:51:40 15:54:59 20° 94° (E) 15:58:18 437.445
MOZHAYETS 4 28 May 16:13:14 16:17:13 28° 95° (E) 16:21:12
HORYU 2 28 May 16:15:34 16:19:31 33° 69° (ENE) 16:23:28 437.375
SWISSCUBE 28 May 16:18:42 16:22:35 25° 294° (WNW) 16:26:28 437.505
STARS 28 May 16:24:40 16:28:10 23° 95° (E) 16:31:40 437.465
ITUPSAT 1 28 May 16:25:24 16:29:16 24° 294° (WNW) 16:33:07 437.325
NOAA 15 28 May 16:39:26 16:42:09 14° 59° (ENE) 16:44:52 137.62
Cubesat XI-IV 28 May 16:48:51 16:50:34 12° 57° (ENE) 16:52:16 437.490
BEESAT 28 May 16:49:19 16:51:57 15° 298° (WNW) 16:54:36 436.000
NOAA 18 28 May 16:53:11 16:56:36 17° 60° (ENE) 17:00:00 137.9125
BRITE-PL 28 May 16:55:56 16:59:21 16° 61° (ENE) 17:02:45 437.365/2234.400
RS-15 28 May 17:06:58 17:17:52 59° 112° (ESE) 17:29:22 29.354- 29.394
GOMX 1 28 May 17:17:19 17:19:12 12° 60° (ENE) 17:21:04 467.674
YUBILEINY 28 May 17:22:17 17:30:43 54° 283° (WNW) 17:39:13 435.215
Cosmos 2491 28 May 17:25:01 17:31:18 23° 280° (W) 17:37:33 435.465 / 435.565
KKS-1 28 May 17:27:36 17:31:39 35° 290° (WNW) 17:35:40 437.445
AO-7 28 May 17:30:49 17:36:42 21° 268° (W) 17:42:39 29.400- 29.500
CUTE-I 28 May 17:31:31 17:35:59 28° 66° (ENE) 17:40:29 437.470
CUBESAT XI-V 28 May 17:41:14 17:45:15 27° 95° (E) 17:49:13 437.345
Cosmos 2504 28 May 17:46:04 17:53:12 68° 93° (E) 18:00:45 435.465 / 435.565
MOZHAYETS 4 28 May 17:50:21 17:54:19 29° 291° (WNW) 17:58:17
HORYU 2 28 May 17:52:41 17:56:07 22° 265° (W) 17:59:33 437.375
HO-68 28 May 17:58:46 17:59:44 10° 48° (NE) 18:00:43 435.675
DOVE 4 28 May 18:00:16 18:02:50 14° 63° (ENE) 18:05:22 437.250
STARS 28 May 18:00:43 18:04:32 30° 291° (WNW) 18:08:21 437.465
PCSat 28 May 18:06:43 18:11:30 30° 50° (NE) 18:16:14 145.827
NOAA 15 28 May 18:15:55 18:21:13 80° 257° (WSW) 18:26:34 137.62
Cubesat XI-IV 28 May 18:24:28 18:29:47 84° 74° (ENE) 18:35:08 437.490
M-CUBED/EXP-1 PRIME 28 May 18:25:27 18:26:05 10° 59° (ENE) 18:26:44 437.505
LilacSat-2 28 May 18:27:11 18:30:59 86° 77° (ENE) 18:34:47 437.200
NOAA 18 28 May 18:31:14 18:36:40 69° 257° (WSW) 18:42:07 137.9125
BRITE-PL 28 May 18:31:27 18:37:06 78° 258° (WSW) 18:42:50 437.365/2234.400
GOMX 1 28 May 18:50:57 18:56:27 83° 77° (ENE) 19:01:51 467.674
O/OREOS (USA 219) 28 May 19:04:04 19:08:21 43° 63° (ENE) 19:12:36 437.305
CUTE-I 28 May 19:11:01 19:15:53 36° 262° (W) 19:20:47 437.470
CUBESAT XI-V 28 May 19:18:29 19:22:35 30° 291° (WNW) 19:26:39 437.345
RS-15 28 May 19:19:47 19:30:41 47° 317° (NW) 19:42:14 29.354- 29.394
STRAND 1 28 May 19:25:01 19:29:16 25° 95° (E) 19:33:30 437.568
DOVE 4 28 May 19:34:43 19:39:57 77° 258° (WSW) 19:45:00 437.250
BEESAT 2 28 May 19:36:00 19:38:40 17° 44° (NE) 19:41:19 435.950
CANX-2 28 May 19:37:52 19:41:42 35° 71° (ENE) 19:45:33 2200.000
SEEDS 28 May 19:38:56 19:42:14 23° 68° (ENE) 19:45:33 437.485
HO-68 28 May 19:38:59 19:45:53 54° 68° (ENE) 19:52:49 435.675
Cosmos 2504 28 May 19:41:55 19:47:20 22° 295° (WNW) 19:52:59 435.465 / 435.565
AUBIESAT-1 28 May 19:48:25 19:52:31 74° 71° (ENE) 19:56:20 437.475
PCSat 28 May 19:49:55 19:54:58 40° 249° (WSW) 20:00:00 145.827
M-CUBED/EXP-1 PRIME 28 May 19:56:02 20:00:14 72° 253° (WSW) 20:04:06 437.505
CINEMA 3 28 May 19:57:47 20:02:26 58° 74° (ENE) 20:06:53 145.822/145.860
CUTE 1.7 + AOD 2 28 May 20:04:32 20:08:40 62° 75° (ENE) 20:12:51 437.475
BEESAT 3 28 May 20:07:46 20:11:40 53° 55° (NE) 20:15:31 437.485
Cubesat XI-IV 28 May 20:08:52 20:10:29 11° 271° (W) 20:12:07 437.490
Oscar 11 28 May 20:15:06 20:17:25 14° 64° (ENE) 20:19:45 145.826/435.025
COMPASS 1 28 May 20:22:06 20:26:06 49° 74° (ENE) 20:30:08 437.405
AAUSAT CUBESAT 2 28 May 20:23:38 20:27:30 40° 72° (ENE) 20:31:25 437.432
PRISM 28 May 20:27:07 20:29:49 17° 93° (E) 20:32:31 437.425
ZACube-1 28 May 20:30:56 20:33:50 18° 67° (ENE) 20:36:42 437.345
AIST 1 28 May 20:32:12 20:35:29 21° 87° (E) 20:38:47
GOMX 1 28 May 20:32:44 20:35:03 13° 272° (W) 20:37:21 467.674
CUBEBUG 2 28 May 20:40:00 20:44:13 50° 74° (ENE) 20:48:21 437.445
O/OREOS (USA 219) 28 May 20:44:29 20:47:22 17° 260° (W) 20:50:15 437.305
DELFI C3 28 May 20:46:15 20:48:11 13° 65° (ENE) 20:50:08 145.870
PHONESAT 2.4 28 May 20:58:04 20:59:40 13° 148° (SSE) 21:01:14 2401.200-2431.200
CUSAT 1 28 May 20:59:06 21:02:06 13° 54° (NE) 21:04:56 437.405
STRAND 1 28 May 21:03:46 21:08:30 38° 291° (WNW) 21:13:14 437.568
UWE-3 28 May 21:06:02 21:10:18 68° 75° (ENE) 21:14:29 435.000/436.395/437.385
FUNcube-1 28 May 21:07:06 21:11:05 42° 72° (ENE) 21:15:01 145.935
BEESAT 2 28 May 21:12:55 21:16:48 51° 242° (WSW) 21:20:40 435.950
SEEDS 28 May 21:14:11 21:17:48 28° 264° (W) 21:21:27 437.485
CANX-2 28 May 21:14:40 21:17:39 19° 267° (W) 21:20:39 2200.000
GONETS M04 28 May 21:16:50 21:24:42 38° 86° (E) 21:32:32
ISS 28 May 21:21:00 21:24:15 74° 140° (SE) 21:27:31 145.825
HO-68 28 May 21:27:55 21:33:53 28° 265° (W) 21:39:53 435.675
CINEMA 3 28 May 21:37:30 21:39:51 14° 269° (W) 21:42:11 145.822/145.860
RS-15 28 May 21:38:34 21:47:23 23° 349° (N) 21:56:28 29.354- 29.394
CUTE 1.7 + AOD 2 28 May 21:44:03 21:44:55 11° 271° (W) 21:45:47 437.475
BEESAT 3 28 May 21:47:06 21:48:54 13° 251° (WSW) 21:50:40 437.485
Oscar 11 28 May 21:48:56 21:53:06 52° 260° (W) 21:57:19 145.826/435.025
AIST 2 28 May 21:54:38 21:58:16 28° 49° (NE) 22:01:53 435.215
COMPASS 1 28 May 22:00:01 22:01:57 13° 269° (W) 22:03:53 437.405
AAUSAT CUBESAT 2 28 May 22:00:40 22:03:11 16° 268° (W) 22:05:42 437.432
PRISM 28 May 22:01:24 22:05:17 39° 289° (WNW) 22:09:09 437.425
HUMSAT D 28 May 22:03:18 22:07:11 45° 73° (ENE) 22:11:05 437.325/437.525
ZACube-1 28 May 22:05:56 22:09:52 37° 262° (W) 22:13:45 437.345
ESTCUBE 1 28 May 22:06:35 22:07:37 11° 61° (ENE) 22:08:39 437.505/2401.250
AIST 1 28 May 22:08:55 22:12:52 32° 284° (WNW) 22:16:50
Cosmos 2499 28 May 22:17:08 22:24:05 52° 90° (E) 22:31:31 435.465 / 435.565
DELFI C3 28 May 22:18:48 22:22:37 48° 261° (W) 22:26:30 145.870
CUBEBUG 2 28 May 22:18:52 22:21:06 14° 268° (W) 22:23:18 437.445
VELOX 1 28 May 22:23:19 22:24:25 11° 61° (ENE) 22:25:32 145.980
ANTELSAT 28 May 22:28:39 22:31:51 20° 94° (E) 22:35:05 437.575/2403.000
PHONESAT 2.4 28 May 22:32:54 22:35:57 49° 163° (SSE) 22:39:00 2401.200-2431.200
CUSAT 1 28 May 22:38:24 22:46:04 64° 76° (ENE) 22:52:20 437.405
50 SAT 28 May 22:40:12 22:42:08 14° 66° (ENE) 22:44:05 437.505
DANDE 28 May 22:42:51 22:50:43 41° 70° (ENE) 22:57:49 436.750
FUNcube-1 28 May 22:45:01 22:47:31 15° 268° (W) 22:50:01 145.935
AISAT 28 May 22:56:39 23:00:19 26° 68° (ENE) 23:04:00 437.250
ISS 28 May 22:58:26 23:00:59 20° 340° (NNW) 23:03:32 145.825
UKube-1 28 May 22:58:32 23:01:23 17° 65° (ENE) 23:04:15 .
GONETS M04 28 May 23:12:58 23:21:18 46° 285° (WNW) 23:29:40
UNISAT 6 28 May 23:23:12 23:27:32 83° 103° (ESE) 23:31:55 437.425
TIGRISAT 28 May 23:30:19 23:34:38 88° 284° (WNW) 23:39:00 435.000
AIST 2 28 May 23:33:08 23:36:41 28° 246° (WSW) 23:40:14 435.215
ESTCUBE 1 28 May 23:39:13 23:43:43 81° 256° (WSW) 23:48:18 437.505/2401.250
HUMSAT D 28 May 23:40:59 23:43:03 14° 268° (W) 23:45:08 437.325/437.525
CUBEBUG 1 28 May 23:45:18 23:49:45 82° 74° (ENE) 23:54:12 437.445
DX 1 28 May 23:45:56 23:50:17 69° 74° (ENE) 23:54:39 434.975-435.025
DUCHIFAT 1 28 May 23:48:36 23:51:59 24° 95° (E) 23:55:21 145.980
RS-15 28 May 23:55:31 00:05:36 28° 25° (NNE) 00:15:47 29.354- 29.394
VELOX 1 28 May 23:55:46 00:00:14 79° 259° (W) 00:04:43 145.980
BUGSAT 1 29 May 00:02:08 00:04:27 15° 92° (E) 00:06:44 437.445
ANTELSAT 29 May 00:04:44 00:08:39 35° 289° (WNW) 00:12:37 437.575/2403.000
SPROUT 29 May 00:06:30 00:10:40 52° 73° (ENE) 00:14:52 437.525
PHONESAT 2.4 29 May 00:09:29 00:12:38 88° 180° (S) 00:15:46 2401.200-2431.200
Cosmos 2499 29 May 00:11:21 00:17:33 29° 291° (WNW) 00:24:10 435.465 / 435.565
50 SAT 29 May 00:12:10 00:15:32 36° 261° (W) 00:18:57 437.505
CUSAT 1 29 May 00:21:42 00:27:19 24° 279° (W) 00:32:15 437.405
DANDE 29 May 00:25:45 00:33:38 46° 271° (W) 00:40:39 436.750
TISAT 1 29 May 00:26:32 00:29:57 24° 68° (ENE) 00:33:22 437.305
POPSAT HIP 1 29 May 00:27:43 00:31:55 75° 101° (E) 00:36:06 437.405
QB50P1 29 May 00:27:58 00:32:11 77° 101° (ESE) 00:36:23 145.935-145.965
QB50P2 29 May 00:30:45 00:34:59 88° 108° (ESE) 00:39:11 145.880/145.840
SO-50 29 May 00:31:26 00:36:20 84° 122° (ESE) 00:41:16 436.795
AISAT 29 May 00:32:45 00:36:40 30° 263° (W) 00:40:36 437.250
UKube-1 29 May 00:32:58 00:37:05 43° 261° (W) 00:41:14 .
POLYITAN 1 29 May 00:33:14 00:37:27 89° 85° (E) 00:41:39 437.675
ISS 29 May 00:36:57 00:38:23 12° 360° (N) 00:39:49 145.825
JAS-2 29 May 00:37:21 00:42:44 22° 88° (E) 00:47:41 435.910
NANOSAT C BR1 29 May 00:45:40 00:49:51 69° 285° (WNW) 00:54:00 145.865
